Погода в Купертино

США     37°19′21″N   122°01′55″W
темп.,
°C
ветер,
м/с
пор.,
м/с
влажн.,
%
обл.,
%
осадки,
мм/ч
давл.,
гПа
погр.,
м
16 октября, сб
сб1623:00+15ю11335 0.0 101916
02:00+15ю11330 0.0 101915
05:00+14ю11320 0.0 101813
08:00+15ююв11345 0.0 101714
11:00+25св11180 0.0 1016430
14:00+30ю02110 0.0 10131419
17:00+27юз13121 0.0 1013844
20:00+18ююз112320 0.0 101411
17 октября, вс
вс1723:00+15ююз22265 0.0 101443
02:00+14ююз22325 0.0 101347
05:00+13ююз2232100 0.0 101242
08:00+13ююз344464 0.0 1013102
11:00+19ю363672 0.0 1013978
14:00+20ююз5934100 0.0 10101273
17:00+17юз4851100 0.0 10111071
20:00+12зсз3786100 0.6 1013723
18 октября, пн
пн1823:00+9зюз23873 1.0 1015332
02:00+8юз22898 0.0 1016121
05:00+10зсз1275100 0.0 1016404
08:00+9з117815 0.0 1018121
11:00+14ссз23521 0.0 10181218
14:00+17ссз43381 0.0 10161643
17:00+15ссз44410 0.0 10161237
20:00+10сз22675 0.0 1017255
19 октября, вт
вт1923:00+8сз12780 0.0 1017113
02:00+8юв01800 0.0 101777
05:00+7ююз11810 0.0 101639
08:00+8ю12690 0.0 101657
11:00+17ю24340 0.0 10161043
14:00+19ю562984 0.0 10151344
17:00+17ююз35322 0.0 1015984
20:00+11ю3452100 0.0 1016151
20 октября, ср
ср2023:00+9ю347099 0.0 1017120
02:00+10ю3565100 0.0 1017128
05:00+12ю2554100 0.0 1018174
08:00+13ююв3646100 0.0 1018210
11:00+18ю354392 0.0 1019674
14:00+22ююз354840 0.0 10181186
17:00+19ююз2463100 0.0 1017579
20:00+16ю237599 0.0 1019188